KC3BHK-2 Weather Reports


Display with metric or nautical units.
time (UTC)temp
F
wind
direction
speed
MPH
gust
MPH
rain 1hr
in
rain 24hr
in
rain mn
in
humidity
%
barometer
mb
20260904213143 83 104 0.0 0.0 0.00 0.00 0.00
20260904212638 85 104 0.0 0.0 0.00 0.00 0.00
20260904212131 83 104 0.0 1.0 0.00 0.00 0.00
20260904211626 83 129 0.0 1.0 0.00 0.00 0.00
20260904211121 83 165 1.0 2.0 0.00 0.00 0.00
20260904210616 82 215 1.0 4.0 0.00 0.00 0.00
20260904210112 83 242 2.0 4.0 0.00 0.00 0.00
20260904205607 81 240 4.0 3.0 0.00 0.00 0.00
20260904205059 82 218 2.0 3.0 0.00 0.00 0.00
20260904204049 80 228 2.0 3.0 0.00 0.00 0.00
20260904203545 79 217 2.0 2.0 0.00 0.00 0.00
20260904203040 81 139 1.0 2.0 0.00 0.00 0.00
20260904202535 80 172 2.0 1.0 0.00 0.00 0.00
20260904202027 80 87 0.0 0.0 0.00 0.00 0.00
20260904201522 81 87 0.0 0.0 0.00 0.00 0.00
20260904201018 82 87 0.0 0.0 0.00 0.00 0.00
20260904200008 83 87 0.0 1.0 0.00 0.00 0.00
20260904195504 85 87 0.0 2.0 0.00 0.00 0.00
20260904194956 85 30 0.0 0.0 0.00 0.00 0.00
20260904194451 85 30 0.0 2.0 0.00 0.00 0.00
20260904193946 86 30 0.0 2.0 0.00 0.00 0.00
20260904193442 86 309 1.0 4.0 0.00 0.00 0.00
20260904192937 87 245 1.0 5.0 0.00 0.00 0.00
20260904192432 89 288 2.0 6.0 0.00 0.00 0.00
20260904191924 89 263 1.0 8.0 0.00 0.00 0.00
20260904191419 89 30 2.0 9.0 0.00 0.00 0.00
20260904190914 89 271 4.0 5.0 0.00 0.00 0.00
20260904185903 91 188 1.0 2.0 0.00 0.00 0.00
20260904185358 92 188 0.0 3.0 0.00 0.00 0.00
20260904184849 94 10 0.0 5.0 0.00 0.00 0.00
20260904183838 94 288 0.0 5.0 0.00 0.00 0.00
20260904183333 93 293 3.0 6.0 0.00 0.00 0.00
20260904182828 91 297 1.0 12.0 0.00 0.00 0.00
20260904182323 91 271 2.0 9.0 0.00 0.00 0.00
20260904181815 92 257 7.0 6.0 0.00 0.00 0.00
20260904181310 93 266 4.0 9.0 0.00 0.00 0.00
20260904180805 93 293 2.0 12.0 0.00 0.00 0.00
20260904180301 93 298 5.0 9.0 0.00 0.00 0.00
20260904175756 93 283 3.0 10.0 0.00 0.00 0.00
20260904175251 93 273 6.0 8.0 0.00 0.00 0.00
20260904174740 92 347 1.0 5.0 0.00 0.00 0.00
20260904174235 91 280 4.0 12.0 0.00 0.00 0.00
20260904173730 88 354 1.0 12.0 0.00 0.00 0.00
20260904173226 88 314 4.0 14.0 0.00 0.00 0.00
20260904172721 88 253 7.0 12.0 0.00 0.00 0.00
20260904172216 89 266 4.0 12.0 0.00 0.00 0.00
20260904171708 90 278 6.0 8.0 0.00 0.00 0.00
20260904171203 90 352 1.0 6.0 0.00 0.00 0.00
20260904170658 90 276 5.0 9.0 0.00 0.00 0.00
20260904170154 90 309 4.0 9.0 0.00 0.00 0.00
20260904165649 90 302 6.0 9.0 0.00 0.00 0.00
20260904165144 89 274 0.0 10.0 0.00 0.00 0.00
20260904164636 88 262 1.0 9.0 0.00 0.00 0.00
20260904164131 89 293 5.0 10.0 0.00 0.00 0.00
20260904163626 89 14 3.0 11.0 0.00 0.00 0.00
20260904163121 89 267 8.0 5.0 0.00 0.00 0.00
20260904162617 88 18 1.0 7.0 0.00 0.00 0.00
20260904162112 88 219 1.0 8.0 0.00 0.00 0.00
20260904161603 86 283 5.0 11.0 0.00 0.00 0.00
20260904161058 87 356 0.0 8.0 0.00 0.00 0.00
20260904160553 87 274 6.0 9.0 0.00 0.00 0.00
20260904160048 88 290 5.0 4.0 0.00 0.00 0.00
20260904155544 87 269 4.0 8.0 0.00 0.00 0.00
20260904155039 87 269 4.0 9.0 0.00 0.00 0.00
20260904154531 87 283 2.0 5.0 0.00 0.00 0.00
20260904154026 86 346 1.0 6.0 0.00 0.00 0.00
20260904153521 87 219 1.0 7.0 0.00 0.00 0.00
20260904153016 84 273 3.0 10.0 0.00 0.00 0.00
20260904152512 85 264 5.0 10.0 0.00 0.00 0.00
20260904152007 86 246 6.0 6.0 0.00 0.00 0.00
20260904151458 84 253 2.0 8.0 0.00 0.00 0.00
20260904150449 83 285 2.0 11.0 0.00 0.00 0.00
20260904145944 82 246 6.0 10.0 0.00 0.00 0.00
20260904145439 82 281 6.0 12.0 0.00 0.00 0.00
20260904144934 82 233 7.0 10.0 0.00 0.00 0.00
20260904143921 84 269 5.0 9.0 0.00 0.00 0.00
20260904143417 82 294 2.0 11.0 0.00 0.00 0.00
20260904142912 81 263 6.0 13.0 0.00 0.00 0.00
20260904142407 80 255 7.0 11.0 0.00 0.00 0.00
20260904141903 80 280 5.0 11.0 0.00 0.00 0.00
20260904140849 79 269 10.0 13.0 0.00 0.00 0.00
20260904140345 79 270 6.0 13.0 0.00 0.00 0.00
20260904135840 78 273 10.0 10.0 0.00 0.00 0.00
20260904135335 77 287 5.0 9.0 0.00 0.00 0.00
20260904134830 76 257 5.0 9.0 0.00 0.00 0.00
20260904134322 76 322 2.0 8.0 0.00 0.00 0.00
20260904133856 79 285 4.0 7.0 0.00 0.00 0.00
20260904133818 79 285 4.0 7.0 0.00 0.00 0.00
20260904133313 77 276 5.0 8.0 0.00 0.00 0.00
20260904132808 78 287 3.0 8.0 0.00 0.00 0.00
20260904132306 79 231 5.0 9.0 0.00 0.00 0.00
20260904131758 79 274 7.0 7.0 0.00 0.00 0.00
20260904131251 80 354 2.0 7.0 0.00 0.00 0.00
20260904130746 77 293 6.0 8.0 0.00 0.00 0.00
20260904130241 77 264 5.0 8.0 0.00 0.00 0.00
20260904125736 76 256 4.0 7.0 0.00 0.00 0.00
20260904125231 77 257 5.0 3.0 0.00 0.00 0.00
20260904124726 75 193 1.0 5.0 0.00 0.00 0.00
20260904124219 74 155 4.0 4.0 0.00 0.00 0.00
20260904123714 75 260 3.0 4.0 0.00 0.00 0.00
20260904123209 74 281 2.0 4.0 0.00 0.00 0.00
20260904122703 74 267 3.0 2.0 0.00 0.00 0.00
20260904122158 73 240 0.0 0.0 0.00 0.00 0.00
20260904121653 73 162 0.0 0.0 0.00 0.00 0.00
20260904121145 73 162 0.0 0.0 0.00 0.00 0.00
20260904120640 72 162 0.0 0.0 0.00 0.00 0.00
20260904120136 72 162 0.0 0.0 0.00 0.00 0.00
20260904115629 72 162 0.0 0.0 0.00 0.00 0.00
20260904115124 70 162 0.0 0.0 0.00 0.00 0.00
20260904114620 71 162 0.0 0.0 0.00 0.00 0.00
20260904114112 70 162 0.0 2.0 0.00 0.00 0.00
20260904113607 70 195 1.0 3.0 0.00 0.00 0.00
20260904113102 70 162 2.0 4.0 0.00 0.00 0.00
20260904112557 69 139 2.0 5.0 0.00 0.00 0.00
20260904112052 69 117 4.0 5.0 0.00 0.00 0.00
20260904111546 68 134 2.0 4.0 0.00 0.00 0.00
20260904111039 68 173 0.0 0.0 0.00 0.00 0.00
20260904110534 68 173 0.0 3.0 0.00 0.00 0.00
20260904105524 68 73 0.0 0.0 0.00 0.00 0.00
20260904105019 68 73 0.0 3.0 0.00 0.00 0.00
20260904104514 69 111 3.0 3.0 0.00 0.00 0.00
20260904104006 68 55 0.0 2.0 0.00 0.00 0.00
20260904103501 68 98 0.0 4.0 0.00 0.00 0.00
20260904102956 68 115 0.0 3.0 0.00 0.00 0.00
20260904102451 69 125 1.0 4.0 0.00 0.00 0.00
20260904101946 68 197 0.0 5.0 0.00 0.00 0.00
20260904101441 68 267 3.0 0.0 0.00 0.00 0.00
20260904100427 69 100 0.0 0.0 0.00 0.00 0.00
20260904095922 67 100 0.0 0.0 0.00 0.00 0.00
20260904095417 69 100 0.0 0.0 0.00 0.00 0.00
20260904094912 68 100 0.0 0.0 0.00 0.00 0.00
20260904094408 69 100 0.0 0.0 0.00 0.00 0.00
20260904093900 69 100 0.0 0.0 0.00 0.00 0.00
20260904093355 68 100 0.0 0.0 0.00 0.00 0.00
20260904092345 68 100 0.0 0.0 0.00 0.00 0.00
20260904091840 67 100 0.0 2.0 0.00 0.00 0.00
20260904091335 69 100 0.0 4.0 0.00 0.00 0.00
20260904090826 69 125 4.0 5.0 0.00 0.00 0.00
20260904090320 70 28 1.0 0.0 0.00 0.00 0.00
20260904085815 69 165 0.0 0.0 0.00 0.00 0.00
20260904085310 69 165 0.0 4.0 0.00 0.00 0.00
20260904084805 69 165 0.0 0.0 0.00 0.00 0.00
20260904084300 69 117 0.0 6.0 0.00 0.00 0.00
20260904083752 68 118 2.0 5.0 0.00 0.00 0.00
20260904083248 69 163 3.0 5.0 0.00 0.00 0.00
20260904082743 69 121 4.0 3.0 0.00 0.00 0.00
20260904082238 68 118 2.0 4.0 0.00 0.00 0.00
20260904081228 68 212 0.0 2.0 0.00 0.00 0.00
20260904080720 69 75 0.0 0.0 0.00 0.00 0.00
20260904080215 68 75 0.0 3.0 0.00 0.00 0.00
20260904075206 69 124 1.0 3.0 0.00 0.00 0.00
20260904074701 67 98 1.0 0.0 0.00 0.00 0.00
20260904074156 68 86 0.0 2.0 0.00 0.00 0.00
20260904073648 69 55 0.0 2.0 0.00 0.00 0.00
20260904072638 68 143 1.0 4.0 0.00 0.00 0.00
20260904071628 68 225 0.0 0.0 0.00 0.00 0.00
20260904071124 68 225 0.0 2.0 0.00 0.00 0.00
20260904070616 68 225 0.0 1.0 0.00 0.00 0.00
20260904070111 68 124 0.0 1.0 0.00 0.00 0.00
20260904065606 68 90 0.0 2.0 0.00 0.00 0.00
20260904065101 68 104 2.0 0.0 0.00 0.00 0.00
20260904064556 68 240 0.0 0.0 0.00 0.00 0.00
20260904064051 67 240 0.0 0.0 0.00 0.00 0.00
20260904063543 69 240 0.0 2.0 0.00 0.00 0.00
20260904063038 67 240 1.0 0.0 0.00 0.00 0.00
20260904062531 69 232 0.0 5.0 0.00 0.00 0.00
20260904062026 68 287 4.0 5.0 0.00 0.00 0.00
20260904061521 69 25 0.0 2.0 0.00 0.00 0.00
20260904060509 69 118 0.0 4.0 0.00 0.00 0.00
20260904055459 70 184 1.0 6.0 0.00 0.00 0.00
20260904054448 69 228 6.0 10.0 0.00 0.00 0.00
20260904053944 69 252 4.0 12.0 0.00 0.00 0.00
20260904053436 69 283 11.0 14.0 0.00 0.00 0.00
20260904052931 70 248 13.0 11.0 0.00 0.00 0.00
20260904052426 69 293 6.0 11.0 0.00 0.00 0.00
20260904051416 69 288 3.0 9.0 0.00 0.00 0.00
20260904050404 69 207 6.0 10.0 0.00 0.00 0.00
20260904045859 69 242 7.0 10.0 0.00 0.00 0.00
20260904045353 69 217 5.0 8.0 0.00 0.00 0.00
20260904044848 69 204 4.0 6.0 0.00 0.00 0.00
20260904044343 70 184 4.0 6.0 0.00 0.00 0.00
20260904043838 70 197 4.0 8.0 0.00 0.00 0.00
20260904043331 70 210 5.0 11.0 0.00 0.00 0.00
20260904041816 70 155 5.0 5.0 0.00 0.00 0.00
20260904041311 70 124 3.0 1.0 0.00 0.00 0.00
20260904040258 70 80 0.0 8.0 0.00 0.00 0.00
20260904035753 69 243 3.0 10.0 0.00 0.00 0.00
20260904035248 70 309 1.0 11.0 0.00 0.00 0.00
20260904034743 70 321 4.0 9.0 0.00 0.00 0.00
20260904034238 71 28 1.0 16.0 0.00 0.00 0.00
20260904033733 70 277 5.0 18.0 0.00 0.00 0.00
20260904032721 70 297 8.0 17.0 0.00 0.00 0.00
20260904032216 72 271 14.0 18.0 0.00 0.00 0.00
20260904031711 71 333 3.0 10.0 0.00 0.00 0.00
20260904031206 73 246 1.0 10.0 0.00 0.00 0.00
20260904030701 73 340 3.0 9.0 0.00 0.00 0.00
20260904030154 72 359 3.0 3.0 0.00 0.00 0.00
20260904025649 74 24 0.0 0.0 0.00 0.00 0.00
20260904025144 74 24 0.0 0.0 0.00 0.00 0.00
20260904024639 73 24 0.0 0.0 0.00 0.00 0.00
20260904024134 74 24 0.0 1.0 0.00 0.00 0.00
20260904023630 74 24 0.0 2.0 0.00 0.00 0.00
20260904023122 75 345 1.0 5.0 0.00 0.00 0.00
20260904022617 75 15 1.0 12.0 0.00 0.00 0.00
20260904022113 75 7 3.0 11.0 0.00 0.00 0.00
20260904021608 75 309 2.0 24.0 0.00 0.00 0.00
20260904021103 78 6 5.0 24.0 0.00 0.00 0.00
20260904020558 80 266 3.0 21.0 0.00 0.00 0.00
20260904020050 79 278 8.0 7.0 0.00 0.00 0.00
20260904015041 79 160 0.0 4.0 0.00 0.00 0.00
20260904014536 80 131 1.0 4.0 0.00 0.00 0.00
20260904014031 80 152 3.0 2.0 0.00 0.00 0.00
20260904013018 79 186 0.0 0.0 0.00 0.00 0.00
20260904012513 80 186 0.0 3.0 0.00 0.00 0.00
20260904012008 79 87 0.0 3.0 0.00 0.00 0.00
20260904011504 80 93 1.0 2.0 0.00 0.00 0.00
20260904010959 79 122 3.0 0.0 0.00 0.00 0.00
20260904005946 78 132 0.0 0.0 0.00 0.00 0.00
20260904005441 78 132 0.0 0.0 0.00 0.00 0.00
20260904004937 80 132 0.0 0.0 0.00 0.00 0.00
20260904004432 80 132 0.0 0.0 0.00 0.00 0.00
20260904003927 79 132 0.0 0.0 0.00 0.00 0.00
20260904003422 80 132 0.0 0.0 0.00 0.00 0.00
20260904002914 77 132 0.0 0.0 0.00 0.00 0.00
20260904002410 78 132 0.0 0.0 0.00 0.00 0.00
20260904001905 79 132 0.0 0.0 0.00 0.00 0.00
20260904001400 79 132 0.0 0.0 0.00 0.00 0.00
20260904000855 79 132 0.0 0.0 0.00 0.00 0.00
20260904000351 80 132 0.0 0.0 0.00 0.00 0.00
20260903235338 80 132 0.0 0.0 0.00 0.00 0.00
20260903234833 79 132 0.0 0.0 0.00 0.00 0.00
20260903234328 79 132 0.0 0.0 0.00 0.00 0.00
20260903233822 79 132 0.0 0.0 0.00 0.00 0.00
20260903233317 80 132 0.0 0.0 0.00 0.00 0.00
20260903232809 80 132 0.0 0.0 0.00 0.00 0.00
20260903232306 81 132 0.0 0.0 0.00 0.00 0.00
20260903231759 81 132 0.0 0.0 0.00 0.00 0.00
20260903231254 81 132 0.0 0.0 0.00 0.00 0.00
20260903230749 82 132 0.0 0.0 0.00 0.00 0.00
20260903230244 83 132 0.0 0.0 0.00 0.00 0.00
20260903225736 82 132 0.0 0.0 0.00 0.00 0.00
20260903225231 82 132 0.0 0.0 0.00 0.00 0.00
20260903224726 84 132 0.0 0.0 0.00 0.00 0.00
20260903224220 84 132 0.0 0.0 0.00 0.00 0.00
20260903223716 85 132 0.0 0.0 0.00 0.00 0.00
20260903223211 88 132 0.0 0.0 0.00 0.00 0.00
20260903222703 87 132 0.0 0.0 0.00 0.00 0.00
20260903222158 88 132 0.0 2.0 0.00 0.00 0.00
20260903220644 91 180 1.0 3.0 0.00 0.00 0.00
20260903220139 91 240 2.0 3.0 0.00 0.00 0.00
20260903215631 91 197 2.0 3.0 0.00 0.00 0.00
20260903215127 89 224 3.0 4.0 0.00 0.00 0.00
20260903214622 91 211 3.0 6.0 0.00 0.00 0.00
20260903214117 90 195 4.0 6.0 0.00 0.00 0.00